Total_Precipitation_Accumulation
0.45 0.55 0.55 0.42 0.36 0.28 0.20 0.15 0.10 0.06 0.06 0.08 0.09 0.06 0.03 0.01 0.01 0.01 0.01 0.00 0.01 0.00 0.00 0.01 0.01 0.02 0.03 0.07 0.09 0.09 0.07 0.05 0.05 0.04 0.04 0.04 0.03 0.02 0.01 0.01 0.01 0.01 0.01 0.00
0.56 0.45 0.28 0.22 0.25 0.31 0.29 0.24 0.15 0.09 0.08 0.10 0.09 0.05 0.03 0.02 0.01 0.01 0.01 0.00 0.00 0.01 0.00 0.01 0.02 0.02 0.03 0.04 0.05 0.08 0.08 0.05 0.04 0.03 0.02 0.02 0.02 0.02 0.01 0.01 0.01 0.00 0.01 0.00
0.48 0.28 0.17 0.25 0.32 0.39 0.36 0.27 0.16 0.11 0.11 0.13 0.13 0.08 0.02 0.01 0.01 0.01 0.00 0.00 0.00 0.00 0.00 0.01 0.01 0.01 0.01 0.02 0.04 0.05 0.06 0.06 0.04 0.04 0.03 0.03 0.03 0.03 0.02 0.01 0.01 0.01 0.01 0.01
0.39 0.21 0.21 0.31 0.35 0.36 0.35 0.20 0.15 0.15 0.20 0.23 0.17 0.16 0.03 0.01 0.01 0.00 0.00 0.00 0.00 0.00 0.00 0.00 0.01 0.01 0.01 0.01 0.02 0.04 0.06 0.06 0.06 0.05 0.03 0.02 0.02 0.01 0.01 0.01 0.01 0.01 0.01 0.01
0.43 0.23 0.23 0.31 0.26 0.25 0.26 0.18 0.20 0.23 0.28 0.28 0.19 0.18 0.05 0.01 0.00 0.00 0.00 0.00 0.00 0.00 0.00 0.00 0.01 0.01 0.00 0.01 0.01 0.03 0.06 0.06 0.07 0.07 0.04 0.03 0.01 0.01 0.01 0.01 0.01 0.01 0.01 0.01
0.35 0.24 0.23 0.20 0.17 0.19 0.23 0.27 0.33 0.37 0.50 0.52 0.16 0.12 0.05 0.00 0.00 0.00 0.00 0.00 0.00 0.00 0.00 0.01 0.01 0.01 0.01 0.01 0.01 0.02 0.05 0.06 0.06 0.08 0.07 0.04 0.03 0.02 0.01 0.01 0.01 0.01 0.01 0.01
0.45 0.32 0.27 0.21 0.26 0.33 0.42 0.60 0.87 0.88 0.83 0.45 0.07 0.06 0.04 0.00 0.00 0.00 0.00 0.00 0.00 0.00 0.00 0.00 0.01 0.01 0.01 0.01 0.01 0.01 0.03 0.05 0.05 0.06 0.07 0.06 0.04 0.03 0.02 0.02 0.02 0.02 0.02 0.01
0.50 0.37 0.27 0.24 0.30 0.40 0.42 0.52 0.65 0.57 0.35 0.11 0.03 0.04 0.02 0.00 0.00 0.00 0.00 0.00 0.00 0.00 0.00 0.00 0.01 0.01 0.01 0.01 0.01 0.01 0.02 0.04 0.04 0.04 0.04 0.06 0.05 0.03 0.03 0.02 0.03 0.02 0.02 0.02
0.50 0.28 0.15 0.16 0.16 0.21 0.30 0.34 0.30 0.36 0.22 0.12 0.06 0.02 0.01 0.00 0.00 0.00 0.00 0.00 0.00 0.00 0.00 0.00 0.00 0.00 0.01 0.01 0.01 0.01 0.02 0.04 0.04 0.03 0.03 0.05 0.05 0.04 0.03 0.02 0.02 0.02 0.02 0.02
0.60 0.40 0.17 0.17 0.24 0.26 0.27 0.32 0.41 0.53 0.41 0.19 0.07 0.02 0.02 0.02 0.01 0.01 0.00 0.00 0.00 0.00 0.00 0.00 0.00 0.00 0.00 0.00 0.01 0.01 0.01 0.03 0.04 0.04 0.03 0.04 0.05 0.04 0.03 0.03 0.02 0.02 0.02 0.02
0.54 0.53 0.33 0.31 0.42 0.40 0.32 0.41 0.53 0.53 0.34 0.20 0.09 0.03 0.04 0.04 0.03 0.02 0.01 0.00 0.00 0.00 0.00 0.00 0.00 0.00 0.00 0.00 0.01 0.01 0.01 0.02 0.03 0.03 0.03 0.04 0.04 0.05 0.04 0.03 0.02 0.02 0.02 0.02
0.53 0.58 0.45 0.31 0.28 0.28 0.33 0.35 0.40 0.45 0.34 0.15 0.09 0.04 0.02 0.02 0.02 0.02 0.01 0.01 0.01 0.00 0.00 0.00 0.00 0.00 0.00 0.00 0.00 0.00 0.01 0.02 0.02 0.02 0.02 0.03 0.04 0.05 0.04 0.03 0.02 0.02 0.02 0.02
0.75 0.85 0.69 0.53 0.45 0.42 0.48 0.42 0.36 0.32 0.27 0.17 0.11 0.04 0.01 0.01 0.01 0.01 0.01 0.01 0.01 0.01 0.00 0.00 0.00 0.00 0.00 0.00 0.00 0.00 0.01 0.01 0.02 0.01 0.02 0.03 0.04 0.04 0.03 0.03 0.02 0.02 0.03 0.03
0.77 0.84 0.66 0.57 0.47 0.44 0.44 0.32 0.31 0.39 0.38 0.19 0.07 0.04 0.03 0.03 0.02 0.02 0.02 0.02 0.01 0.01 0.01 0.00 0.00 0.00 0.00 0.00 0.00 0.00 0.00 0.01 0.01 0.01 0.01 0.02 0.03 0.02 0.02 0.02 0.03 0.02 0.03 0.03
0.65 0.62 0.34 0.21 0.16 0.16 0.18 0.17 0.17 0.26 0.25 0.15 0.06 0.06 0.06 0.06 0.05 0.05 0.06 0.04 0.02 0.02 0.01 0.01 0.00 0.00 0.00 0.00 0.00 0.01 0.00 0.01 0.01 0.01 0.01 0.01 0.02 0.02 0.02 0.02 0.02 0.03 0.03 0.02
0.67 0.57 0.27 0.16 0.12 0.12 0.12 0.10 0.11 0.12 0.10 0.08 0.05 0.05 0.05 0.06 0.06 0.06 0.07 0.06 0.04 0.04 0.02 0.01 0.01 0.01 0.00 0.00 0.00 0.01 0.01 0.01 0.01 0.01 0.01 0.01 0.02 0.02 0.02 0.02 0.02 0.02 0.03 0.03
0.63 0.60 0.43 0.23 0.13 0.21 0.21 0.10 0.09 0.08 0.07 0.08 0.08 0.05 0.05 0.06 0.06 0.07 0.09 0.06 0.05 0.04 0.03 0.02 0.01 0.01 0.01 0.01 0.00 0.01 0.01 0.01 0.00 0.00 0.01 0.01 0.01 0.02 0.02 0.03 0.03 0.03 0.03 0.03
0.42 0.51 0.57 0.36 0.29 0.45 0.18 0.06 0.06 0.07 0.07 0.08 0.07 0.06 0.05 0.06 0.06 0.07 0.09 0.07 0.04 0.03 0.03 0.03 0.02 0.01 0.01 0.01 0.01 0.01 0.01 0.01 0.01 0.00 0.01 0.01 0.01 0.02 0.03 0.03 0.03 0.03 0.03 0.04
0.19 0.40 0.63 0.54 0.44 0.26 0.10 0.08 0.08 0.09 0.12 0.09 0.07 0.06 0.05 0.04 0.05 0.06 0.05 0.05 0.04 0.04 0.03 0.03 0.02 0.02 0.01 0.01 0.02 0.02 0.02 0.02 0.01 0.00 0.00 0.00 0.01 0.02 0.03 0.03 0.03 0.04 0.04 0.04
0.18 0.35 0.64 0.57 0.45 0.21 0.13 0.09 0.07 0.09 0.19 0.10 0.08 0.08 0.07 0.06 0.06 0.06 0.04 0.03 0.03 0.03 0.03 0.02 0.02 0.02 0.02 0.02 0.02 0.02 0.02 0.02 0.01 0.00 0.01 0.01 0.01 0.01 0.01 0.02 0.03 0.04 0.04 0.04
0.39 0.57 0.64 0.47 0.34 0.13 0.12 0.12 0.11 0.19 0.23 0.12 0.08 0.08 0.08 0.08 0.08 0.06 0.04 0.03 0.03 0.03 0.03 0.03 0.03 0.03 0.02 0.02 0.02 0.02 0.02 0.02 0.01 0.01 0.01 0.01 0.01 0.01 0.01 0.03 0.04 0.04 0.04 0.05
0.38 0.48 0.43 0.35 0.32 0.16 0.14 0.17 0.24 0.24 0.13 0.09 0.07 0.07 0.06 0.06 0.05 0.05 0.04 0.03 0.03 0.02 0.02 0.03 0.03 0.03 0.02 0.02 0.02 0.02 0.03 0.02 0.02 0.01 0.01 0.01 0.01 0.01 0.02 0.04 0.05 0.05 0.05 0.05
0.25 0.31 0.30 0.26 0.17 0.12 0.13 0.19 0.20 0.13 0.08 0.05 0.05 0.05 0.05 0.05 0.05 0.05 0.04 0.03 0.03 0.03 0.03 0.03 0.03 0.04 0.03 0.02 0.02 0.02 0.03 0.03 0.03 0.02 0.02 0.02 0.02 0.03 0.04 0.04 0.05 0.05 0.06 0.08
0.15 0.16 0.21 0.17 0.09 0.08 0.10 0.13 0.13 0.09 0.05 0.04 0.04 0.04 0.04 0.04 0.05 0.05 0.05 0.04 0.03 0.03 0.03 0.03 0.03 0.04 0.04 0.03 0.02 0.02 0.02 0.03 0.03 0.03 0.02 0.02 0.03 0.04 0.05 0.05 0.05 0.06 0.09 0.16
0.12 0.14 0.17 0.14 0.07 0.08 0.08 0.08 0.08 0.06 0.04 0.04 0.03 0.02 0.03 0.03 0.04 0.05 0.05 0.04 0.03 0.04 0.04 0.03 0.03 0.04 0.04 0.03 0.02 0.02 0.03 0.03 0.03 0.03 0.03 0.04 0.04 0.06 0.07 0.07 0.06 0.07 0.09 0.18
0.06 0.08 0.10 0.09 0.05 0.06 0.07 0.06 0.05 0.04 0.04 0.04 0.03 0.02 0.02 0.03 0.04 0.04 0.04 0.03 0.03 0.04 0.04 0.03 0.03 0.04 0.04 0.03 0.03 0.03 0.03 0.03 0.04 0.04 0.04 0.05 0.06 0.06 0.07 0.07 0.07 0.08 0.08 0.10